カタログに戻る

CZ-4 DEB

運用中PO
NORAD 35326·DEBRIS·🇨🇳 China

打ち上げ Oct 14, 1999 から Taiyuan Satellite Launch Center

Loading…

次のパス (今後24時間)

TLE

最新Source: Space-Track

元期: Sep 14, 2026, 08:18 UTC

1 35326U 99057SE  26257.34594922 -.00000142  00000-0 -56096-4 0  9998
2 35326  98.4178 113.3279 0232851  68.5950 293.9885 14.00354406666243

AllMySatでCZ-4 DEBをリアルタイム追跡

Download on the App Store